Larissa, Greece

7:12 PM EET on February 25, 2017 (GMT +0200)
Larisa Air Base

Weather History for LGLR - March, 2014

Change the Weather History Date:

Wednesday, March 26, 2014

  Actual Average Record
Temperature  
Mean Temperature 52 °F -  
Max Temperature 63 °F 67 °F - ()
Min Temperature 42 °F 42 °F - ()
Degree Days  
Heating Degree Days 12    
Growing Degree Days 2 (Base 50)    
Moisture  
Dew Point 41 °F    
Average Humidity 67    
Maximum Humidity 87    
Minimum Humidity 34    
Precipitation  
Precipitation 0.08 in 0.04 in - ()
Sea Level Pressure  
Sea Level Pressure 29.89 in    
Wind  
Wind Speed 2 mph ()    
Max Wind Speed 6 mph    
Max Gust Speed -    
Visibility 6.1 miles    
Events Rain    
T = Trace of Precipitation, MM = Missing Value Source: Averaged Metar Reports

Daily Weather History Graph

Daily Weather History Graph

Search for Another Location

Airport or City:

Trip Planner

Search our weather history database for the weather conditions in past years. The results will help you decide how hot, cold, wet, or windy it might be!

Date:

Astronomy

Mar. 26, 2014 Rise Set
Actual Time 6:24 AM EET 6:48 PM EET
Civil Twilight 5:57 AM EET 7:15 PM EET
Nautical Twilight 5:25 AM EET 7:46 PM EET
Astronomical Twilight 4:53 AM EET 8:19 PM EET
Moon 3:18 AM EET (3/26) 2:06 PM EET (3/26)
Length of Visible Light 13h 17m
Length of Day
12h 23m
Waning Crescent, 24% of the Moon is Illuminated
Mar 26
Waning Crescent
Mar 30
New
Apr 7
First Quarter
Apr 15
Full
Apr 22
Last Quarter

Hourly Weather History & Observations

Time (EET) Temp. Windchill Dew Point Humidity Pressure Visibility Wind Dir Wind Speed Gust Speed Precip Events Conditions
12:50 AM 46.4 °F 45.2 °F 35.6 °F 66% 29.83 in 6.2 mi Variable 3.5 mph - N/A   Scattered Clouds
1:50 AM 46.4 °F - 37.4 °F 71% 29.83 in 6.2 mi Calm Calm - N/A   Mostly Cloudy
2:00 AM 47 °F - 37 °F 57% 29.85 in 6 mi Calm Calm - -   Scattered Clouds
2:50 AM 44.6 °F 42.2 °F 37.4 °F 76% 29.83 in 6.2 mi Variable 4.6 mph - N/A   Mostly Cloudy
3:50 AM 46.4 °F - 35.6 °F 66% 29.80 in 6.2 mi Calm Calm - N/A   Mostly Cloudy
4:50 AM 42.8 °F 40.1 °F 37.4 °F 81% 29.80 in 6.2 mi Variable 4.6 mph - N/A   Mostly Cloudy
5:00 AM 42 °F - 37 °F 75% 29.83 in 6 mi 4.6 mph - -   Scattered Clouds
5:50 AM 42.8 °F - 35.6 °F 76% 29.83 in 6.2 mi Calm Calm - N/A   Mostly Cloudy
6:50 AM 44.6 °F - 37.4 °F 76% 29.83 in 6.2 mi Calm Calm - N/A   Scattered Clouds
7:50 AM 48.2 °F - 39.2 °F 71% 29.86 in 6.2 mi Calm Calm - N/A   Mostly Cloudy
8:00 AM 48 °F - 39 °F 63% 29.86 in 6 mi Calm Calm - -   Mostly Cloudy
8:50 AM 50.0 °F - 41.0 °F 71% 29.86 in 5.0 mi Calm Calm - N/A Rain Rain
9:50 AM 51.8 °F - 44.6 °F 76% 29.89 in 5.0 mi NE 4.6 mph - N/A   Mostly Cloudy
10:50 AM 51.8 °F - 46.4 °F 82% 29.89 in 6.2 mi NNE 4.6 mph - N/A Rain Light Rain
11:00 AM 51 °F - 46 °F 77% 29.91 in 6 mi NNE 4.6 mph - - Rain Light Rain
11:50 AM 55.4 °F - 42.8 °F 63% 29.89 in 6.2 mi NNE 4.6 mph - N/A   Mostly Cloudy
12:50 PM 57.2 °F - 42.8 °F 59% 29.89 in 6.2 mi NNE 4.6 mph - N/A   Mostly Cloudy
1:50 PM 60.8 °F - 42.8 °F 52% 29.89 in 6.2 mi Calm Calm - N/A   Scattered Clouds
2:00 PM 62 °F - 43 °F 38% 29.90 in 6 mi Calm Calm - -   Partly Cloudy
2:50 PM 60.8 °F - 41.0 °F 48% 29.89 in 6.2 mi Calm Calm - N/A   Scattered Clouds
3:50 PM 62.6 °F - 42.8 °F 48% 29.89 in 6.2 mi Calm Calm - N/A   Scattered Clouds
4:50 PM 64.4 °F - 42.8 °F 45% 29.89 in 6.2 mi Calm Calm - N/A   Scattered Clouds
5:00 PM 64 °F - 43 °F 34% 29.89 in 6 mi Calm Calm - -   Partly Cloudy
5:50 PM 62.6 °F - 44.6 °F 52% 29.89 in 6.2 mi Calm Calm - N/A   Scattered Clouds
6:50 PM 59.0 °F - 42.8 °F 55% 29.92 in 6.2 mi Calm Calm - N/A   Scattered Clouds
7:50 PM 50.0 °F - 44.6 °F 82% 29.95 in 6.2 mi East 5.8 mph - N/A   Scattered Clouds
8:00 PM 50 °F - 44 °F 72% 29.95 in 6 mi East 5.8 mph - -   Scattered Clouds
8:50 PM 48.2 °F - 42.8 °F 82% 29.95 in 6.2 mi East 4.6 mph - N/A   Scattered Clouds
9:50 PM 48.2 °F - 42.8 °F 82% 29.98 in 6.2 mi Calm Calm - N/A   Mostly Cloudy
10:50 PM 50.0 °F - 44.6 °F 82% 29.98 in 6.2 mi Calm Calm - N/A   Mostly Cloudy
11:00 PM 50 °F - 44 °F 72% 29.99 in 6 mi Calm Calm - -   Scattered Clouds
11:50 PM 48.2 °F - 44.6 °F 87% 29.98 in 6.2 mi Calm Calm - N/A   Mostly Cloudy